GFSGBSN_925_rhum_198.txt.gz
RH
99 99 99 99 91 79 77 86 90 87 93 92 90 96 85 77 77 71 75 68 53 49 52 95 98 74 54 34 40 49 47 41 42 39 55 40 30 27 26 31 36 28 38 41 42 46 44
92 91 85 82 79 72 75 78 83 84 88 89 91 93 94 87 84 79 71 67 55 44 50 54 86 85 58 22 58 44 45 41 50 56 57 51 43 41 39 42 36 47 48 45 45 40 37
82 83 82 79 79 74 73 79 92 90 84 91 94 96 94 93 88 80 69 63 53 42 52 44 73 90 52 36 58 47 41 45 56 62 53 63 56 38 39 47 54 52 35 33 40 33 32
82 82 83 78 74 85 91 92 94 96 92 95 98 95 83 83 92 86 74 65 53 49 56 61 68 81 38 60 57 51 43 50 54 58 65 65 60 52 49 48 32 29 27 20 29 35 35
81 81 81 87 91 91 90 91 91 91 92 90 93 84 81 87 89 87 67 56 46 58 66 60 70 66 38 52 53 58 53 50 58 62 65 56 52 48 39 30 41 25 26 22 24 38 36
79 87 91 92 90 89 88 86 91 94 91 91 93 81 84 86 90 88 65 48 49 63 69 72 75 48 44 48 62 60 59 59 53 55 50 46 43 35 35 35 49 25 21 30 28 32 40
86 90 90 92 94 90 89 88 88 91 95 90 87 77 86 88 90 84 61 42 40 39 45 33 41 53 52 56 55 55 65 56 48 41 31 52 38 41 26 33 30 34 32 32 32 42 44
89 91 93 90 92 97 96 96 96 93 94 95 82 71 79 86 88 75 60 57 67 76 66 62 61 58 58 58 51 49 64 45 40 30 49 36 35 35 46 46 42 39 39 34 32 42 47
90 95 97 95 95 95 95 94 81 92 91 89 81 77 76 80 85 79 80 78 77 86 72 54 55 57 54 53 51 52 57 51 42 42 41 29 36 50 47 53 44 42 34 34 39 48 50
93 97 97 97 97 96 92 83 80 80 90 84 74 78 73 79 87 87 77 80 82 83 76 93 55 62 55 52 55 66 62 53 56 39 44 36 54 56 53 48 44 50 42 48 58 56 42
91 95 95 95 87 87 86 87 84 83 88 78 74 76 78 81 100 83 81 80 79 61 51 62 59 61 58 56 66 69 66 52 45 52 47 46 58 56 53 42 45 43 55 63 63 72 82
90 88 88 87 82 78 83 82 81 85 86 84 73 69 80 87 93 89 82 78 64 59 49 63 61 66 64 64 72 71 66 59 58 57 54 51 60 52 42 54 50 55 53 49 74 79 75
81 88 89 87 86 82 77 79 79 83 82 72 70 71 90 80 79 83 86 57 67 66 31 51 55 66 60 66 69 74 70 66 54 59 51 52 57 60 55 53 55 50 40 66 61 73 38
84 85 83 80 77 75 81 87 82 79 72 74 79 78 88 87 87 88 80 56 65 43 38 34 49 66 67 64 68 73 70 56 63 41 42 51 56 66 57 47 36 47 37 50 40 36 26
93 87 84 86 87 85 88 89 82 75 73 75 76 85 90 92 83 89 80 79 46 50 44 57 51 55 47 56 56 71 64 54 44 53 39 37 44 53 60 52 46 53 54 45 62 57 63
94 92 87 92 94 94 94 96 81 76 68 73 82 94 92 92 89 90 90 68 54 49 53 53 54 45 44 48 53 61 52 46 50 56 49 34 45 47 57 51 51 47 43 61 59 62 56
92 91 92 96 85 80 79 76 74 73 74 78 83 81 88 94 89 84 95 77 62 52 52 56 55 54 49 47 46 49 44 38 45 57 52 40 37 51 53 60 49 57 54 60 55 60 71
93 93 97 95 82 70 60 58 63 72 74 83 87 82 85 98 94 76 94 96 79 64 54 55 53 52 52 50 51 48 46 44 50 52 56 52 47 50 41 46 44 45 43 40 55 67 75
91 95 97 92 73 61 55 48 43 68 70 84 86 84 84 86 86 86 90 85 91 93 75 71 65 69 57 53 63 53 46 50 55 55 57 50 55 61 52 47 49 51 52 48 49 54 58
92 90 92 89 80 74 68 53 40 46 74 74 83 84 91 93 97 97 89 86 83 79 84 91 89 82 97 76 59 72 62 63 59 65 68 56 54 48 41 44 44 52 54 55 52 59 49
88 88 89 90 80 74 74 74 43 37 74 68 85 94 91 92 99 88 97 91 84 93 82 86 94 86 87 98 91 92 73 71 68 68 68 59 64 62 54 55 59 55 52 49 54 51 57
87 87 90 88 82 79 72 74 46 45 78 86 83 84 89 92 82 80 72 81 86 85 100 81 97 97 97 98 96 97 88 78 75 63 74 74 84 78 84 61 60 64 56 53 53 51 50
87 87 88 84 78 77 70 63 39 54 69 90 90 90 72 79 82 88 76 86 92 86 97 98 100 95 82 79 76 81 90 81 68 67 65 60 78 84 68 64 64 66 50 50 46 42 48
87 86 83 80 78 82 81 74 46 44 60 75 97 87 82 79 76 65 80 78 77 91 93 84 79 78 93 63 47 42 49 65 64 61 58 58 67 74 85 63 78 35 34 40 45 40 39
85 81 79 77 81 83 84 84 83 49 45 56 76 84 82 80 77 72 71 75 68 62 65 61 55 58 49 51 51 47 43 51 48 49 53 55 57 74 76 63 45 41 27 36 42 36 32
88 83 79 80 87 76 70 70 82 83 66 51 66 70 81 67 62 71 70 71 66 62 57 53 48 48 58 53 53 68 56 40 40 51 78 63 58 65 64 79 61 33 41 35 38 47 39
92 90 92 93 77 74 71 71 74 72 75 64 68 66 73 69 52 67 56 54 66 67 61 56 54 45 60 58 58 56 54 40 43 38 76 83 82 77 65 67 44 32 31 35 47 44 41
95 95 94 88 91 87 83 86 90 82 82 70 71 74 71 70 58 63 56 60 71 66 60 50 55 63 63 69 65 50 56 45 55 35 49 54 69 71 67 76 79 31 44 46 42 33 31
90 90 90 89 88 88 89 90 90 86 86 79 79 80 85 80 71 76 73 60 56 51 53 64 53 53 47 63 69 68 64 60 71 59 49 49 36 35 47 39 38 47 41 34 34 36 33

GFSGBSN_925_rhum_201.txt.gz
RH
98 91 89 90 87 77 70 68 78 77 86 89 95 100 100 98 93 90 77 80 79 90 66 51 54 38 56 37 30 59 42 46 53 49 45 33 23 20 19 21 25 21 25 29 32 34 32
86 87 87 84 78 71 68 71 69 89 94 87 92 95 86 93 79 92 83 75 73 64 51 51 47 47 52 32 58 55 53 46 53 45 45 39 34 28 27 28 29 33 32 32 33 29 26
80 81 80 76 76 76 70 80 80 85 95 91 93 95 88 83 80 86 80 73 69 58 51 56 54 74 46 31 56 53 49 49 56 54 44 52 44 31 28 36 39 37 27 28 32 27 26
80 78 76 81 87 88 86 92 92 93 92 93 92 94 97 82 82 78 78 68 60 52 54 59 59 63 32 58 60 50 47 40 50 56 55 57 47 40 38 37 27 26 25 21 27 28 28
78 78 78 89 92 92 91 90 91 92 94 93 92 94 92 84 79 86 80 61 53 47 63 69 69 53 30 51 46 55 53 44 46 52 54 47 42 37 39 30 38 21 28 16 26 29 29
77 74 86 91 92 92 89 89 87 95 95 95 88 85 75 76 84 84 68 48 42 46 70 71 61 52 36 38 51 53 53 53 45 44 46 41 38 32 27 29 55 28 16 19 16 30 27
72 82 81 91 90 95 97 96 96 94 91 96 92 67 62 60 82 81 72 57 39 41 35 34 41 42 39 48 54 48 54 46 42 38 30 37 38 45 22 20 19 18 16 16 17 31 34
69 73 92 95 95 95 96 94 94 94 89 93 80 68 62 57 78 76 70 52 63 68 68 46 46 47 45 53 44 43 54 44 38 32 34 32 31 21 30 29 26 24 24 24 23 32 34
67 81 95 94 94 94 90 91 93 86 87 86 74 62 68 59 77 80 72 77 82 79 68 45 43 50 50 47 41 43 48 43 37 30 34 28 32 35 33 36 30 27 24 20 29 33 32
65 82 94 94 87 82 82 81 78 83 76 83 70 62 68 73 86 83 69 84 86 79 73 92 44 52 49 47 48 57 55 52 47 40 32 27 37 40 37 38 31 43 29 34 41 43 42
86 90 88 88 77 73 72 74 78 77 78 78 73 63 74 74 83 65 83 84 82 67 62 59 51 55 50 52 54 62 58 50 44 38 41 44 50 49 44 35 30 38 41 46 48 60 64
93 90 78 75 72 70 68 68 67 78 80 78 64 60 75 84 86 85 87 86 70 66 66 67 49 53 56 51 58 60 58 50 50 49 43 43 50 40 34 41 37 44 41 43 66 71 79
93 86 78 80 82 76 71 69 64 66 73 67 67 64 87 81 76 87 86 65 65 64 26 39 48 50 50 47 50 60 60 58 51 63 48 45 46 46 44 47 48 48 35 70 78 85 43
92 92 82 78 76 72 73 69 65 65 64 67 75 76 88 86 88 86 74 57 64 28 28 30 40 40 53 49 52 56 56 50 43 45 37 58 63 52 45 42 35 40 33 61 47 38 29
93 95 77 77 77 76 80 81 76 70 69 74 76 88 80 95 88 87 67 77 47 29 38 45 38 39 39 44 51 56 50 42 36 42 40 36 43 52 51 44 40 44 46 38 51 35 44
94 95 87 91 93 91 87 80 75 76 69 70 78 75 76 94 95 85 70 63 42 43 43 44 44 37 36 36 45 41 38 38 43 45 38 29 41 46 54 46 45 44 33 49 47 65 49
93 94 94 95 81 81 75 70 70 69 70 73 78 67 81 96 89 79 80 60 53 45 46 48 46 45 41 40 40 37 37 37 42 49 44 35 32 47 50 51 39 49 42 42 46 50 68
92 91 95 91 79 70 62 54 60 66 72 83 69 69 83 98 83 64 80 72 70 58 50 54 49 46 47 43 44 42 39 40 45 47 48 44 43 41 40 40 38 35 34 34 48 58 56
90 95 90 90 77 71 59 48 42 61 68 85 67 71 84 90 86 75 68 69 71 70 65 70 62 60 49 52 53 44 42 45 48 51 53 46 43 51 43 43 43 46 37 38 32 38 55
92 95 87 84 89 66 56 47 38 43 68 85 69 84 83 82 91 80 74 71 68 70 78 78 87 81 78 79 60 56 54 59 54 56 70 55 46 42 40 44 42 47 43 44 43 56 46
96 92 90 91 84 78 63 42 31 34 68 74 70 80 74 93 99 88 76 70 71 70 69 75 77 75 68 76 65 70 61 58 58 60 57 55 61 52 47 45 45 50 45 42 49 50 55
98 95 91 86 81 76 60 42 37 40 77 76 71 75 71 80 66 66 68 71 63 79 92 68 83 72 82 98 96 99 97 66 65 66 72 64 68 64 78 57 52 58 49 46 46 43 42
94 92 90 83 78 78 73 38 42 62 74 74 79 77 68 68 70 74 70 62 74 76 83 94 90 90 70 94 75 65 67 70 69 66 63 64 72 80 72 49 56 61 46 46 43 39 39
93 92 86 78 81 81 76 41 30 48 58 84 95 71 72 68 71 63 67 72 70 74 81 67 66 68 84 49 41 39 41 45 54 61 59 87 68 84 75 63 74 35 29 32 36 32 30
92 86 81 79 84 84 79 66 43 34 37 68 83 70 67 70 56 61 64 65 60 56 63 57 49 48 40 41 52 56 44 45 43 46 52 56 72 91 86 66 43 37 30 32 34 33 30
84 82 80 81 86 88 83 80 69 60 47 63 75 81 61 52 52 52 56 51 52 43 45 46 42 36 45 43 49 78 59 43 40 50 65 47 49 72 70 75 59 35 39 31 34 45 32
83 81 80 86 92 82 80 82 73 68 64 68 74 58 61 64 37 39 37 38 44 47 48 42 42 37 44 44 55 54 54 38 47 39 67 74 65 74 66 66 43 25 24 27 52 52 38
90 88 93 95 90 90 85 88 84 72 64 74 78 67 71 53 42 48 44 43 50 47 47 42 42 52 45 54 45 40 40 35 43 35 31 45 55 57 60 64 72 26 38 37 40 33 31
98 97 95 90 92 90 90 90 90 80 75 77 76 73 77 66 60 68 60 52 46 39 44 44 41 39 39 55 47 48 52 46 46 51 28 40 33 34 34 36 38 40 36 30 29 28 26

GFSGBSN_925_rhum_204.txt.gz
RH
87 87 87 86 83 81 75 69 69 59 76 85 94 95 93 96 71 66 63 74 73 94 70 51 44 40 50 44 39 54 37 39 48 45 42 42 37 25 26 26 25 27 26 28 33 33 31
83 82 80 77 78 77 76 72 66 64 86 95 92 94 93 84 76 74 64 60 66 66 70 49 46 52 69 42 52 52 40 42 50 46 43 43 40 35 29 31 38 32 31 32 31 28 25
82 80 77 74 73 66 72 91 95 95 95 93 93 94 94 96 95 71 62 56 59 64 58 49 52 75 54 40 52 45 44 44 50 53 46 50 48 44 29 41 36 36 34 30 34 27 27
82 78 75 73 70 80 92 93 92 93 95 95 93 94 95 93 88 57 64 52 53 55 46 58 52 75 52 53 49 48 46 37 44 52 53 53 51 41 44 40 31 32 27 33 34 28 32
79 78 78 74 69 76 90 91 91 90 95 95 96 90 86 62 82 66 63 47 49 44 47 60 70 61 45 43 45 52 50 44 43 47 50 41 45 41 40 42 61 28 55 26 38 28 30
82 79 74 67 66 92 93 92 93 96 93 92 96 81 58 58 56 69 54 45 49 46 56 69 58 56 38 46 50 50 49 48 44 41 49 50 47 45 42 49 74 59 26 19 22 35 30
69 72 72 69 92 94 96 96 97 96 96 92 94 72 55 55 53 68 64 57 50 53 40 43 40 41 35 45 50 45 52 47 43 40 40 40 53 67 47 34 31 21 22 18 26 35 37
70 67 66 87 95 92 92 89 91 96 95 95 85 66 60 49 68 71 63 56 69 74 85 44 43 43 41 44 44 44 48 49 42 46 36 44 48 35 34 30 26 25 26 29 31 31 35
69 67 75 93 88 82 70 72 80 88 92 84 79 63 59 65 69 74 70 79 81 75 78 49 39 47 50 48 42 51 48 45 45 42 40 50 40 35 32 35 34 30 30 26 32 37 34
67 76 88 95 87 75 59 64 74 79 82 78 73 64 58 58 74 77 70 81 82 76 93 94 46 54 48 46 55 52 52 56 47 46 38 39 40 38 38 40 36 46 29 32 38 52 75
82 79 83 76 78 67 59 63 70 72 78 77 74 57 60 72 86 65 81 82 77 76 77 70 53 52 48 52 54 64 56 54 51 41 44 55 50 50 46 41 32 49 38 49 52 71 63
89 88 86 66 61 58 62 66 64 65 71 74 63 58 65 82 83 77 84 85 76 91 80 56 47 50 51 50 53 57 57 51 50 52 48 48 47 45 39 39 37 46 46 56 74 89 88
93 93 87 65 64 66 65 64 63 64 68 67 65 63 77 81 75 79 83 74 92 83 30 41 45 40 43 46 46 57 59 65 64 67 63 45 53 46 43 53 48 50 50 90 94 93 86
95 95 92 71 70 67 63 65 65 64 64 66 72 71 82 76 83 85 79 81 84 35 30 30 34 37 45 45 50 52 56 62 47 45 48 78 78 56 49 50 52 61 47 88 76 87 78
98 95 92 73 68 66 65 71 72 68 66 69 72 80 73 80 89 84 83 95 68 37 37 46 38 43 41 43 51 51 56 50 39 45 49 59 61 54 48 47 46 49 63 42 59 35 76
100 93 87 74 76 87 82 81 74 71 67 66 79 69 69 82 92 86 86 71 49 40 41 41 48 33 34 35 42 42 37 39 45 45 36 44 52 50 55 48 47 51 37 61 70 79 72
100 97 89 89 92 80 76 71 66 64 69 66 83 72 81 93 88 86 90 70 54 44 47 48 47 45 42 43 40 40 37 46 44 49 44 47 39 58 56 63 55 55 52 46 61 76 88
99 99 97 91 83 77 70 63 61 65 70 74 67 79 86 92 91 77 84 62 68 57 51 55 53 51 53 47 49 46 42 48 47 46 51 50 58 62 54 43 38 44 41 42 84 71 82
98 98 98 89 86 78 72 58 51 61 74 78 75 83 83 88 91 83 66 61 65 66 61 63 59 62 58 56 59 48 44 47 54 56 67 60 59 73 52 52 45 48 42 43 43 49 66
98 98 98 95 86 86 74 63 51 43 64 89 69 84 85 87 86 84 79 69 62 70 73 66 77 74 70 68 56 69 66 60 57 60 68 64 56 58 67 52 46 50 42 41 49 81 65
94 99 98 100 82 80 88 58 38 37 64 78 72 84 73 89 94 83 69 66 63 71 67 69 68 71 70 98 63 61 66 73 62 61 58 62 75 61 56 49 50 52 53 50 58 58 66
99 98 90 97 93 87 74 35 26 31 67 77 77 78 75 87 76 82 82 73 66 62 78 70 84 78 76 94 100 100 88 84 77 68 86 94 98 82 80 62 62 69 57 55 52 49 47
92 97 98 90 83 83 63 36 42 55 77 67 77 75 78 71 64 76 78 67 65 70 76 83 93 95 74 98 90 70 63 63 72 76 66 90 96 97 93 61 62 77 59 54 53 47 47
99 97 91 83 82 84 62 40 52 70 74 74 85 67 80 90 74 68 65 68 77 78 78 77 69 90 73 47 44 48 52 52 54 66 59 88 83 97 95 72 93 43 30 32 39 37 37
91 90 84 84 86 88 83 40 33 38 63 69 79 74 79 90 62 60 61 63 64 61 74 62 55 48 39 45 57 65 60 54 50 48 59 83 84 97 95 92 66 48 38 39 40 43 34
92 88 83 86 88 89 87 68 55 42 52 43 61 70 60 77 71 52 56 51 63 54 48 52 43 37 41 55 58 93 66 47 53 68 67 55 74 88 96 94 69 54 39 31 34 54 39
90 84 81 85 91 86 76 69 63 59 54 49 60 62 61 89 46 36 47 57 44 47 55 44 43 41 41 59 66 67 70 48 60 48 84 85 82 86 85 88 65 31 37 30 58 61 39
82 81 82 89 92 90 90 84 65 57 53 66 70 59 79 67 54 45 42 44 50 55 58 52 53 64 55 69 56 50 52 44 44 39 43 55 79 80 75 85 86 40 37 43 44 38 34
83 84 89 91 92 91 91 92 82 65 62 72 83 64 58 72 78 63 58 52 48 43 51 52 56 54 49 81 69 67 63 54 56 64 36 50 40 44 44 54 38 30 40 37 29 29 30

GFSGBSN_925_rhum_207.txt.gz
RH
86 87 86 84 81 76 75 70 63 63 86 92 95 94 94 95 96 94 64 62 52 59 78 50 47 39 41 55 51 54 37 40 39 42 43 46 39 33 28 28 28 28 30 34 38 35 34
86 83 79 78 76 71 64 62 65 88 95 96 95 95 95 96 96 92 73 47 56 54 52 51 47 46 72 50 52 47 43 38 44 47 46 48 45 42 34 37 40 33 34 38 34 35 28
84 84 79 74 71 70 62 84 92 94 95 95 95 95 92 92 86 83 55 52 52 52 48 45 48 67 65 47 54 46 47 42 47 52 50 51 50 43 43 41 38 37 35 31 36 31 30
85 82 78 76 74 65 69 89 90 93 93 95 95 95 86 74 78 50 49 51 55 50 37 45 52 71 68 48 47 52 43 41 43 48 52 48 48 43 43 41 34 34 30 33 37 30 31
78 77 78 76 71 65 83 92 84 96 97 96 93 95 75 64 48 55 54 45 52 38 46 55 72 71 52 45 51 49 48 49 46 46 48 43 46 45 41 48 64 33 50 32 37 30 30
76 73 70 65 64 75 95 97 97 96 96 96 87 73 58 59 52 63 56 47 47 45 50 63 62 56 43 53 49 44 50 48 49 51 52 52 54 54 51 60 51 49 31 24 37 38 33
78 72 64 61 59 90 94 92 88 91 96 87 76 68 52 53 63 67 54 50 64 55 55 64 57 47 43 42 46 48 48 51 48 46 49 46 61 65 49 43 33 23 23 20 41 36 31
83 74 62 51 60 85 86 72 65 83 89 75 68 66 50 50 65 72 59 74 78 78 92 64 46 45 43 46 52 52 45 50 45 49 40 52 48 37 38 41 34 24 24 26 34 36 29
80 75 63 45 57 76 68 57 60 58 65 64 64 62 50 49 73 76 77 83 82 78 86 67 42 51 55 53 52 63 57 57 49 44 40 55 41 35 33 33 34 30 31 29 34 39 37
82 79 70 51 64 81 69 59 60 62 67 65 66 59 46 52 73 76 82 82 81 78 95 68 56 57 54 48 60 54 56 60 53 48 47 44 41 39 37 40 44 39 33 38 43 56 54
95 84 73 52 72 82 67 54 57 60 65 68 62 51 48 79 79 80 85 81 81 76 47 49 60 51 51 57 57 66 55 59 56 56 48 47 52 48 47 43 37 52 55 58 62 79 50
94 93 80 60 50 68 54 51 57 58 60 62 59 54 55 81 83 83 76 74 80 68 48 50 54 54 64 58 59 64 63 55 53 60 50 53 47 52 46 50 41 49 54 67 83 88 65
97 94 92 71 62 56 52 54 59 60 58 57 57 61 66 76 85 82 76 80 73 64 34 48 48 44 43 54 56 68 70 71 71 62 61 51 55 49 44 60 51 50 60 88 88 84 54
99 95 92 91 61 56 56 61 63 59 55 57 66 66 78 78 78 78 82 75 59 50 36 32 36 43 48 47 53 57 65 74 62 49 63 75 62 62 51 55 58 66 59 81 47 95 80
100 98 94 96 83 63 64 63 60 58 57 63 67 76 76 73 75 81 89 94 70 56 44 54 50 46 48 51 49 59 68 60 47 47 57 73 64 55 51 54 48 61 67 48 61 52 69
100 100 97 100 91 81 74 70 68 62 62 62 77 77 68 71 77 86 91 82 63 44 48 51 57 36 41 43 50 50 45 43 50 47 45 49 51 56 58 50 48 50 42 54 73 74 80
100 100 100 100 97 80 82 82 73 68 68 64 79 87 82 75 86 92 95 80 71 55 57 58 59 62 56 53 47 50 40 53 50 53 50 52 50 59 61 71 68 61 58 53 66 80 85
100 100 98 98 99 92 86 86 80 72 76 72 85 88 85 87 93 91 90 74 64 63 58 59 60 61 60 57 57 52 49 59 56 51 60 54 65 77 65 46 42 46 45 47 74 62 87
100 100 100 99 100 95 93 87 83 86 82 85 92 94 85 86 97 90 69 67 68 63 65 76 69 77 68 73 70 63 58 57 61 71 84 72 68 82 61 52 46 48 47 46 52 67 74
97 98 94 100 100 96 84 88 85 76 79 96 79 94 92 92 88 88 80 78 63 71 77 70 77 71 77 71 65 71 77 67 63 66 65 69 73 65 74 55 48 55 45 45 52 84 63
98 97 100 98 92 93 95 92 82 64 70 88 85 89 79 96 98 90 72 73 65 76 74 68 73 77 68 93 81 78 82 74 78 69 69 83 88 70 66 62 55 55 55 52 59 59 71
97 100 96 98 97 98 95 93 88 59 71 85 90 87 84 96 86 88 85 88 74 74 77 85 87 86 79 92 98 99 95 99 100 75 86 82 92 97 93 70 64 69 65 61 61 58 56
100 100 97 95 99 96 91 81 56 41 75 76 78 76 77 79 82 93 94 81 68 69 87 87 88 92 85 80 96 92 74 73 72 95 80 90 92 97 92 72 68 86 70 61 55 51 50
100 98 98 98 91 87 81 74 59 73 84 72 81 74 87 94 79 75 75 72 85 79 88 87 80 91 68 52 56 63 66 63 65 69 77 83 88 98 97 82 93 49 41 45 52 48 46
98 100 94 88 84 79 77 78 71 81 77 65 78 74 88 96 77 70 74 69 68 66 79 68 62 52 40 46 62 73 71 64 66 63 70 79 79 97 97 96 75 52 42 40 42 45 42
99 94 84 84 87 89 87 74 57 58 61 64 72 65 64 84 76 54 66 62 76 67 61 59 46 38 42 64 64 95 85 59 58 64 70 84 83 97 98 94 92 51 40 32 34 56 42
99 88 88 88 90 90 89 73 62 54 42 37 62 66 61 87 52 41 55 70 52 55 66 55 47 45 47 70 79 83 87 58 72 60 85 87 88 93 93 91 83 49 45 31 49 54 39
82 80 85 88 89 90 87 79 52 47 50 46 65 58 65 73 62 49 44 48 58 63 66 58 60 67 66 74 68 60 64 59 60 53 54 81 89 94 87 88 88 44 44 49 47 35 34
80 81 89 90 90 91 91 80 55 53 56 62 63 55 60 73 78 61 53 53 50 48 62 62 59 62 65 86 81 79 70 70 62 72 40 51 45 50 65 74 37 34 39 33 27 28 27

GFSGBSN_925_rhum_213.txt.gz
RH
88 88 89 83 77 72 66 59 53 55 93 96 96 97 94 54 27 19 28 36 44 44 78 98 90 52 58 34 56 49 41 36 32 38 48 49 42 33 31 33 32 30 34 38 36 34 34
86 85 81 81 74 70 67 50 40 65 82 87 93 90 64 40 20 20 26 35 46 48 63 76 51 51 66 25 53 48 46 40 44 46 54 51 51 47 35 35 33 35 35 39 38 35 31
90 88 84 76 72 69 62 53 59 71 94 96 96 90 37 17 16 39 47 47 46 48 44 42 50 62 57 39 48 45 42 43 46 50 57 54 56 47 39 39 40 40 34 33 36 36 30
86 82 85 76 63 57 53 50 87 94 92 95 94 78 32 24 27 39 50 45 46 47 46 50 66 68 56 47 50 40 44 41 38 43 52 49 49 48 45 40 36 33 34 31 32 36 33
92 89 81 73 68 58 47 46 54 64 65 90 91 70 42 34 32 49 49 38 46 44 50 60 60 58 50 46 45 41 49 52 47 45 48 47 45 46 40 42 56 44 36 31 28 41 37
85 89 85 77 73 58 35 22 36 58 65 67 74 52 43 41 36 58 39 39 46 39 44 56 58 34 42 54 44 42 45 45 52 54 49 48 58 54 61 50 49 32 38 28 30 36 34
83 80 81 78 77 69 48 30 28 37 43 49 55 48 48 38 39 65 38 39 51 35 56 62 60 56 50 45 47 49 50 49 49 42 45 52 58 57 40 50 34 30 29 25 32 38 33
79 83 80 77 73 71 62 40 29 32 36 43 48 49 43 35 50 72 49 84 81 72 83 59 67 51 48 52 54 50 48 48 47 43 46 56 57 37 37 42 44 40 32 31 34 38 31
74 78 86 84 80 75 70 57 42 39 41 43 42 44 37 37 60 76 81 87 85 83 83 61 52 51 53 52 59 64 59 61 51 42 47 46 32 44 43 39 48 42 39 31 30 40 39
72 73 74 87 89 85 76 68 50 39 34 37 45 46 40 46 66 82 87 87 86 79 72 50 53 50 56 53 56 58 59 57 52 49 55 48 46 46 42 41 46 40 43 34 44 48 54
84 74 74 76 86 89 86 76 64 45 44 44 44 44 46 66 73 85 80 79 82 62 54 39 55 52 56 54 50 60 57 57 52 56 52 41 56 54 49 44 42 48 59 58 58 67 50
79 84 82 81 81 87 88 85 73 53 40 40 45 47 51 80 76 82 79 76 75 64 46 40 55 60 58 62 59 64 64 55 57 60 54 55 48 56 51 53 52 56 52 66 77 67 61
86 90 89 92 94 85 87 91 84 64 45 42 45 51 59 67 76 76 71 66 64 64 34 43 62 59 49 53 62 69 67 70 60 55 56 55 55 52 48 52 49 45 51 75 61 73 61
98 97 96 97 98 100 99 96 91 76 51 47 49 63 65 72 77 70 78 42 36 39 50 38 40 44 50 52 54 64 67 70 68 55 72 78 51 58 51 51 56 57 48 74 45 71 64
97 100 100 98 93 100 100 100 98 90 60 58 64 69 75 72 76 74 66 72 52 42 41 52 48 53 49 54 46 65 70 70 55 64 56 77 59 56 56 54 49 57 75 52 66 62 79
99 95 99 99 100 100 100 100 100 98 79 69 78 90 84 73 72 80 83 62 47 53 49 52 43 48 46 58 56 61 58 51 56 54 50 54 66 56 57 54 53 54 48 68 76 61 79
79 86 90 90 88 100 100 100 100 99 86 87 91 97 83 80 82 89 94 77 70 61 56 56 58 60 55 56 54 55 47 50 53 53 53 57 63 57 64 72 68 68 66 60 70 73 76
85 82 68 68 85 99 100 100 100 99 97 91 95 99 94 93 96 96 99 82 65 68 60 63 64 64 68 65 63 62 60 52 61 54 67 61 73 81 66 54 57 57 63 60 83 68 89
86 82 82 67 75 97 100 100 98 98 98 95 98 97 100 96 98 98 86 76 70 68 68 73 75 72 71 74 68 64 61 62 63 66 69 66 79 91 66 57 49 55 53 49 58 71 81
84 82 80 77 77 100 100 100 100 96 98 95 98 100 100 100 88 83 84 83 79 65 69 74 74 72 72 77 71 78 78 69 69 68 68 71 79 73 78 57 63 65 61 52 58 82 66
79 80 80 79 93 100 100 96 97 100 93 91 98 99 87 99 99 96 84 75 77 86 76 76 82 77 72 93 86 86 86 81 77 75 78 76 87 84 78 75 74 72 73 70 69 66 71
84 83 84 86 100 100 100 100 99 93 99 96 98 97 86 98 89 97 93 90 78 82 86 89 83 83 82 84 80 92 83 91 80 76 85 86 98 86 91 80 74 78 73 75 74 67 64
84 88 88 100 100 100 100 100 99 92 99 97 97 89 91 97 100 100 94 81 87 76 85 83 76 86 85 83 81 80 79 81 81 93 91 90 91 92 93 77 74 72 70 64 63 62 58
87 96 98 100 100 100 100 99 97 95 97 98 94 88 90 97 98 90 80 84 82 76 83 86 81 78 73 49 51 58 71 76 78 76 84 97 86 93 96 74 97 50 51 58 67 65 55
96 100 100 100 100 98 98 99 97 99 98 100 94 83 86 94 85 78 80 80 78 74 80 89 78 63 46 47 61 69 73 70 73 74 76 85 90 96 98 96 73 54 47 50 50 49 47
100 100 100 99 99 99 98 98 98 97 98 97 84 68 66 83 84 61 77 72 86 90 83 62 47 43 48 57 64 88 79 66 65 74 82 86 85 96 97 98 93 58 53 47 44 62 46
100 100 99 99 96 95 91 86 91 88 88 89 76 56 50 84 53 51 71 75 64 66 75 62 53 47 52 71 74 89 89 65 72 70 96 92 94 92 90 87 85 56 44 48 60 63 48
100 99 100 100 93 91 92 92 94 94 90 75 74 55 47 66 65 53 45 58 60 61 72 59 57 61 67 77 73 71 77 68 71 62 83 89 97 92 90 96 91 40 46 55 46 36 34
100 100 100 97 85 90 88 86 81 61 58 53 67 66 58 80 78 69 65 61 53 46 61 62 57 64 63 74 76 78 73 76 71 79 50 63 77 80 81 75 42 34 33 32 35 32 35

GFSGBSN_925_rhum_216.txt.gz
RH
84 84 83 80 76 72 68 56 40 36 76 90 96 91 58 42 51 34 23 45 55 58 68 60 41 42 55 32 53 50 44 38 36 39 49 47 40 36 32 34 32 32 32 37 36 35 35
85 82 78 77 71 64 64 49 32 18 33 71 73 41 24 23 16 16 26 39 39 43 51 39 44 52 58 20 50 46 42 40 43 46 55 51 49 49 40 36 35 36 36 38 38 35 32
90 90 90 88 79 66 50 41 25 25 38 60 45 25 16 14 14 18 38 35 32 44 39 37 55 60 54 37 46 41 44 44 45 46 55 55 57 48 40 39 42 39 33 32 36 37 30
86 90 92 93 83 74 60 39 26 40 54 50 50 24 13 14 15 17 33 36 32 42 39 53 61 63 52 48 49 39 44 41 41 46 52 50 50 47 45 40 38 33 33 29 28 38 34
88 90 87 88 79 74 66 43 24 34 52 48 41 22 21 21 22 20 32 33 41 41 37 58 56 54 43 45 41 40 48 50 45 43 49 49 45 48 40 40 53 42 34 30 23 41 38
83 86 87 82 72 68 66 58 34 20 30 38 36 30 34 34 28 41 32 33 45 40 34 48 56 29 37 47 46 45 48 48 51 50 47 48 57 52 61 48 51 28 34 27 29 36 36
70 77 83 81 77 70 68 65 55 31 18 24 33 30 36 30 30 49 38 34 47 35 48 54 54 55 49 46 47 47 52 51 47 40 45 52 54 53 37 46 35 33 31 28 29 39 36
71 72 74 79 80 79 75 71 66 51 30 22 31 36 34 29 42 63 50 84 80 73 89 59 68 62 49 53 56 47 50 44 42 41 48 55 48 36 37 39 42 42 39 39 31 39 34
67 69 71 73 78 80 81 78 72 65 48 32 30 37 33 27 41 68 82 90 89 86 92 56 57 48 50 51 57 64 59 58 52 37 50 44 35 46 45 42 50 47 42 35 31 40 42
88 81 71 71 72 75 81 84 83 75 65 42 34 36 35 25 53 76 85 84 86 81 75 50 50 48 56 54 49 60 59 56 51 48 56 48 45 48 45 43 50 42 46 39 41 51 53
82 84 89 85 76 73 76 84 86 84 75 59 37 37 38 39 66 79 71 77 81 64 66 44 54 53 58 54 53 60 59 54 49 55 48 33 55 56 50 44 45 47 58 57 53 61 56
88 86 86 87 87 89 82 81 85 89 85 71 44 40 43 47 71 71 76 74 71 65 55 39 58 60 56 62 58 63 64 55 57 56 54 55 50 56 52 54 52 61 49 58 71 68 73
100 99 95 92 90 90 90 88 86 91 92 81 52 46 50 55 66 75 69 60 63 68 36 38 59 61 51 49 60 70 66 67 57 49 48 54 54 52 51 53 48 42 55 75 65 76 66
95 99 99 100 100 99 97 94 92 99 98 89 61 57 59 58 73 67 73 41 48 48 40 34 42 44 48 50 57 69 69 70 68 54 72 71 50 60 52 51 57 52 50 75 50 63 62
96 99 100 100 100 100 100 99 99 100 100 97 77 75 78 60 78 73 69 78 67 42 35 54 48 54 50 51 48 68 73 71 61 64 57 78 61 56 59 55 49 63 74 51 68 61 83
89 89 92 96 93 100 100 100 100 100 100 100 93 90 92 80 83 84 88 90 42 36 48 49 40 45 50 62 62 74 61 60 57 65 50 55 62 57 59 56 57 56 54 72 78 68 79
80 82 82 78 87 90 94 95 100 100 100 100 95 98 92 92 85 94 98 84 57 57 52 56 55 48 51 55 65 66 51 48 54 63 54 58 64 58 67 74 73 72 71 65 72 72 76
74 81 86 85 80 72 68 75 90 100 100 97 95 99 100 99 99 100 99 81 60 71 62 65 57 58 65 65 66 62 59 51 59 60 71 62 73 80 66 56 58 59 70 65 85 76 89
83 73 83 84 81 80 80 80 99 100 97 91 97 98 100 97 99 98 91 80 73 74 71 72 75 68 67 68 68 68 59 67 66 67 71 71 81 94 67 60 54 64 61 57 65 72 83
85 78 79 83 84 79 84 88 99 100 96 83 98 99 98 99 95 99 99 98 86 68 66 72 74 71 75 81 73 74 78 74 72 72 68 69 77 73 74 56 63 68 58 56 62 87 74
86 78 82 74 81 81 77 93 100 100 93 78 98 99 94 99 98 100 92 100 98 97 76 73 79 80 74 86 83 88 81 83 78 74 82 74 85 86 80 74 76 74 72 71 74 70 77
76 84 84 80 82 80 78 97 100 100 96 84 98 99 96 100 93 98 100 100 90 100 90 87 83 75 74 80 74 89 85 84 90 77 82 90 98 83 85 81 84 85 73 73 71 70 75
86 85 81 81 88 76 87 100 100 100 93 97 98 94 93 97 100 100 98 93 99 98 93 81 79 83 86 84 78 81 78 82 89 93 87 89 95 96 93 77 66 72 63 66 55 70 62
84 85 85 88 83 83 100 100 100 100 87 90 97 94 99 98 99 93 100 95 98 93 99 99 79 87 78 52 56 55 58 66 80 86 87 97 96 95 96 76 94 47 50 55 63 61 56
86 85 88 93 94 100 99 100 100 100 97 91 97 94 95 99 89 99 98 98 92 93 100 97 92 62 48 47 59 64 68 68 69 72 78 90 95 97 96 94 70 50 51 52 53 58 53
83 88 94 100 98 98 100 100 99 99 98 94 98 95 89 86 92 69 88 88 95 98 98 80 52 48 48 55 62 79 73 66 66 82 82 79 88 97 97 94 91 56 54 45 52 72 50
95 98 100 100 100 99 96 97 99 99 100 98 99 95 80 90 55 60 84 89 71 74 86 68 60 54 51 65 69 78 82 66 70 71 97 93 94 92 91 93 82 53 44 48 64 65 45
100 100 100 100 100 99 99 98 99 99 98 98 98 90 60 66 66 56 46 61 60 67 81 65 66 64 74 80 69 71 79 71 70 63 89 85 93 85 85 95 90 39 36 56 36 35 34
100 100 100 100 100 99 99 99 98 95 99 93 86 76 50 74 80 76 72 68 57 47 64 64 66 62 65 77 75 72 72 77 70 74 51 71 83 85 85 76 42 34 31 30 36 34 32